Miscellaneous Local Product
Issued by NWS North Platte, NE

Home | Current Version | Previous Version | Text Only | Print | Product List | Glossary On
Versions: 1 2 3 4 5 6 7 8 9 10 11 12 13 14 15 16 17 18 19 20 21 22 23 24 25 26 27 28 29 30 31 32 33 34 35 36 37 38 39 40 41 42 43 44 45 46 47 48 49 50
672
AXUS43 KLBF 150910
MISLBF


WESTERN AND NORTH CENTRAL NEBRASKA HOURLY WEATHER ROUNDUP
NATIONAL WEATHER SERVICE NORTH PLATTE NE
300 AM CST MON JAN 15 2018

NOTE: "FAIR" INDICATES FEW OR NO CLOUDS BELOW 12,000 FEET WITH NO
SIGNIFICANT WEATHER AND/OR OBSTRUCTIONS TO VISIBILITY.

NOTE: STATIONS NOT REPORTING VARIABLES SUCH AS SKY/WEATHER OR
PRESSURE ARE PROVIDED BY RAWS AND APRS NETWORKS AND ARE NOT UNDER
NATIONAL WEATHER SERVICE QUALITY CONTROL.

...OBSERVATIONS IN AND NEAR THE EASTERN PANHANDLE OF NEBRASKA...

CITY           SKY/WX    TMP DP  RH WIND       PRES   REMARKS
PINE RIDGE     CLEAR      4  -9  55 N22G30    30.43R WCI -18
GORDON         FAIR       2  -6  69 N23       30.37S WCI -21
CHADRON        CLOUDY     8  -1  66 NE10      30.46R WCI  -6
ALLIANCE       CLOUDY    12   5  73 N16       30.35R WCI  -5
SIDNEY         CLOUDY    18  16  92 NE12      30.31R WCI   5
CRESCENT LAKE    N/A     12   2  63 N13G24      N/A  WCI  -3
$$

...OBSERVATIONS IN NORTHERN NEBRASKA AND FAR SOUTHERN SOUTH DAKOTA...

CITY           SKY/WX    TMP DP  RH WIND       PRES   REMARKS
WINNER         MOCLDY     3  -4  72 N21G33    30.48R WCI -18
VALENTINE      CLEAR      3  -5  69 N20G26    30.44R WCI -18
AINSWORTH      MOCLDY     3  -2  79 N23G30    30.41R WCI -19
O`NEILL        CLOUDY     5   1  81 NW21G31   30.41R WCI -16
THEDFORD       PTCLDY     7   0  73 N16G24    30.39R WCI -12
BROKEN BOW     PTCLDY     8  -1  66 N24G31    30.38R WCI -13
ORD            CLEAR      8   1  73 NW20G25   30.40R WCI -11
ALBION         LGT SNOW  11   5  76 NW15G23   30.38R WCI  -5
VALENTINE NWR    N/A      5  -2  73 NW20G28     N/A  WCI -15
HALSEY           N/A      6  -1  74 N8G17       N/A  WCI  -7
BUTTE            N/A      2  -3  79 N22         N/A  WCI -20
CHAMBERS         N/A      4  -7  60 NW9         N/A  WCI -10
EWING            N/A      6   2  84 N10         N/A  WCI  -9
$$

...OBSERVATIONS IN SOUTHWEST NEBRASKA AND FAR NORTHEAST COLORADO...

CITY           SKY/WX    TMP DP  RH WIND       PRES   REMARKS
WRAY           CLOUDY    27  23  86 N15G21    30.32R WCI  15
HOLYOKE        PTSUNNY   25  19  80 N15       30.34R WCI  12
IMPERIAL       CLOUDY    22  15  75 N16       30.34R WCI   8
OGALLALA       CLOUDY    21  10  62 N10       30.36R WCI  10
NORTH PLATTE   MOCLDY    15   8  73 N10       30.37R WCI   2
MCCOOK         CLOUDY    25  15  66 N17       30.35R WCI  12
LEXINGTON      CLOUDY    15   5  63 N16       30.39R WCI   0
STAPLETON        N/A      9   4  81 CALM        N/A
GOTHENBURG       N/A     13   5  70 NW13        N/A  WCI  -1
CALLAWAY         N/A      9   3  76 N18         N/A  WCI  -9
$$

...OBSERVATIONS IN CENTRAL LINCOLN COUNTY AREA...

CITY           SKY/WX    TMP DP  RH WIND       PRES   REMARKS
N.P. AIRPORT   MOCLDY    15   8  73 N10       30.37R WCI   2
N.P. DOWNTOWN    N/A     15  11  82 N3          N/A
N.P. SOUTHEAST   N/A     16  11  79 N5          N/A  WCI   9
N.P. HILLCREST   N/A     14  10  83 NW9         N/A  WCI   2
$$

...SOME OBSERVATIONS FROM AROUND THE REGION...

CITY           SKY/WX    TMP DP  RH WIND       PRES   REMARKS
DENVER         CLOUDY    28  23  81 CALM      30.28R
BERTHOUD PASS  FAIR      16   3  57 NW43G52   30.18S WCI  -7
GRAND JUNCTION CLEAR     25  23  92 E7        30.28F WCI  17
LARAMIE        CLOUDY    27  21  78 N13       30.19S WCI  16
CHEYENNE       CLOUDY    21  19  92 N9G18     30.26R WCI  11
CASPER         LGT SNOW  19  14  81 NE9       30.37R WCI   8
BISMARCK       PTCLDY    -7 -15  68 NW10      30.61R WCI -25
RAPID CITY     CLEAR      1  -6  72 N29G36    30.45R WCI -24
PIERRE         CLEAR     -2  -7  79 NW13      30.55R WCI -20
SIOUX FALLS    PTCLDY     1  -5  75 NW17G29   30.37R WCI -19
OMAHA          CLOUDY    13   3  64 N16G31    30.36R WCI  -3
GRAND ISLAND   CLOUDY    10   3  73 N17       30.40R WCI  -8
SCOTTSBLUFF    CLOUDY    23  12  62 N18       30.36R WCI   9
KANSAS CITY    CLOUDY    26  17  68 N17       30.25R WCI  13
HILL CITY      FLURRIES  30  27  88 N14       30.34R WCI  19
WICHITA        LGT RAIN  37  35  92 N15       30.26R WCI  28
DODGE CITY     CLOUDY    34  29  82 NE21G31   30.25R WCI  22
OKLAHOMA CITY  PTCLDY    28  19  69 S7        30.22F WCI  21
DALLAS         CLEAR     41  32  70 S9        30.27S
AMARILLO       CLOUDY    33  18  53 S13       30.12F WCI  24
$$




USA.gov is the U.S. government's official web portal to all federal, state and local government web resources and services.